Location: Rochester
(43.1547°N, 77.6158°W)
Time: 14:09:24
(UTC-05:00)

N. Korean satellite - Visible Passes

Search period start: 19 January 2018 00:00
Search period end: 29 January 2018 00:00
Orbit: 459 x 515 km, 97.2° (Epoch: 19 January)

Date Brightness Start Highest point End Pass type
(mag) Time Alt. Az. Time Alt. Az. Time Alt. Az.
19 Jan 6.6 17:48:51 10° SSE 17:52:23 56° ENE 17:55:53 10° N visible
20 Jan 7.0 06:48:22 10° NNE 06:51:48 65° E 06:55:14 10° S visible
20 Jan 9.6 18:59:49 10° SW 19:02:21 18° W 19:04:52 10° NW visible
21 Jan 8.6 06:24:58 10° NNE 06:28:05 30° E 06:31:10 10° SSE visible
21 Jan 8.4 18:35:16 10° SSW 18:38:34 34° W 18:41:50 10° NNW visible
22 Jan 9.8 06:02:05 10° NE 06:04:17 16° E 06:06:28 10° SE visible
22 Jan 6.8 18:11:17 10° S 18:14:51 72° W 18:18:24 10° NNW visible
23 Jan 6.6 17:47:43 10° SSE 17:51:13 54° ENE 17:54:40 10° N visible
24 Jan 7.0 06:47:11 10° NNE 06:50:36 63° E 06:54:02 10° S visible
24 Jan 9.6 18:58:38 10° SW 19:01:09 18° W 19:03:40 10° NW visible
25 Jan 8.7 06:23:47 10° NNE 06:26:52 30° E 06:29:58 10° SSE visible
25 Jan 8.3 18:34:05 10° SSW 18:37:22 35° W 18:40:37 10° NNW visible
26 Jan 9.8 06:00:53 10° NE 06:03:04 16° E 06:05:13 10° SE visible
26 Jan 6.8 18:10:06 10° S 18:13:39 74° WSW 18:17:10 10° NNW visible
27 Jan 6.6 17:46:34 10° SSE 17:50:00 52° ENE 17:53:24 10° N visible
28 Jan 7.1 06:45:55 10° NNE 06:49:22 61° E 06:52:50 10° S visible
28 Jan 9.6 18:57:24 10° SW 18:59:55 18° W 19:02:26 10° NW visible
